TimeCDT,TemperatureF,Dew PointF,Humidity,Sea Level PressureIn,VisibilityMPH,Wind Direction,Wind SpeedMPH,Gust SpeedMPH,PrecipitationIn,Events,Conditions,WindDirDegrees,DateUTC
12:53 AM,41.0,39.9,96,30.00,10.0,Calm,Calm,-,N/A,,Clear,0,2013-05-08 05:53:00
1:53 AM,43.0,41.0,93,29.99,10.0,West,3.5,-,N/A,,Clear,270,2013-05-08 06:53:00
2:53 AM,41.0,39.0,93,29.99,10.0,West,4.6,-,N/A,,Clear,280,2013-05-08 07:53:00
3:53 AM,41.0,39.0,93,30.00,10.0,WSW,3.5,-,N/A,,Clear,250,2013-05-08 08:53:00
4:53 AM,42.1,39.0,89,30.01,10.0,WSW,3.5,-,N/A,,Clear,250,2013-05-08 09:53:00
5:53 AM,39.9,37.9,93,30.01,10.0,Calm,Calm,-,N/A,,Clear,0,2013-05-08 10:53:00
6:53 AM,48.0,44.1,86,30.02,10.0,Calm,Calm,-,N/A,,Clear,0,2013-05-08 11:53:00
7:53 AM,55.9,42.1,60,30.03,10.0,West,4.6,-,N/A,,Clear,260,2013-05-08 12:53:00
8:53 AM,64.9,45.0,48,30.03,10.0,West,3.5,-,N/A,,Clear,270,2013-05-08 13:53:00
9:53 AM,72.0,45.0,38,30.02,10.0,Calm,Calm,-,N/A,,Clear,0,2013-05-08 14:53:00
10:53 AM,77.0,46.9,34,30.01,10.0,North,6.9,-,N/A,,Clear,10,2013-05-08 15:53:00
11:53 AM,75.9,46.9,36,30.01,10.0,North,8.1,-,N/A,,Clear,10,2013-05-08 16:53:00
12:53 PM,69.1,45.0,42,30.01,10.0,NNE,6.9,-,N/A,,Clear,30,2013-05-08 17:53:00
1:53 PM,62.1,44.1,52,30.01,10.0,North,9.2,-,N/A,,Mostly Cloudy,360,2013-05-08 18:53:00
2:53 PM,63.0,44.1,50,30.01,10.0,North,5.8,-,N/A,,Mostly Cloudy,350,2013-05-08 19:53:00
3:53 PM,68.0,50.0,52,30.01,10.0,WNW,10.4,-,N/A,,Mostly Cloudy,290,2013-05-08 20:53:00
4:53 PM,69.1,48.9,49,30.01,10.0,South,3.5,-,N/A,,Overcast,170,2013-05-08 21:53:00
5:53 PM,69.1,48.9,49,30.01,10.0,Calm,Calm,-,N/A,,Overcast,0,2013-05-08 22:53:00
6:53 PM,66.9,50.0,54,30.00,10.0,WNW,4.6,-,N/A,,Overcast,300,2013-05-08 23:53:00
7:53 PM,57.0,46.0,67,30.04,10.0,NE,13.8,-,0.00,,Overcast,50,2013-05-09 00:53:00
8:53 PM,54.0,46.9,77,30.04,10.0,NNW,9.2,-,N/A,,Overcast,340,2013-05-09 01:53:00
9:53 PM,50.0,45.0,83,30.07,10.0,Calm,Calm,-,0.00,Rain,Light Rain,0,2013-05-09 02:53:00
10:53 PM,48.9,46.0,90,30.08,9.0,WNW,5.8,-,0.02,Rain,Light Rain,300,2013-05-09 03:53:00
11:53 PM,48.0,44.1,86,30.05,10.0,NE,4.6,-,0.02,,Overcast,50,2013-05-09 04:53:00